timestamp,surface_pressure_avg,surface_temp_avg,battery_voltage,lat,long
2024-03-14 00:09:00+00:00,314.8864,0.7,11.61,47.84626,-54.09684
2024-03-14 00:19:00+00:00,321.783,0.7,11.61,47.84626,-54.09684
2024-03-14 00:29:00+00:00,333.6363,0.7,11.61,47.84626,-54.09684
2024-03-14 00:39:00+00:00,345.7313,0.7,11.61,47.84626,-54.09684
2024-03-14 00:49:00+00:00,352.3297,0.7,11.61,47.84626,-54.09684
2024-03-14 00:59:00+00:00,357.2679,0.7,11.61,47.84626,-54.09684
2024-03-14 01:09:00+00:00,363.5496,0.7,11.61,47.84626,-54.09684
2024-03-14 01:19:00+00:00,367.098,0.7,11.61,47.84626,-54.09684
2024-03-14 01:29:00+00:00,369.4045,0.7,11.61,47.84626,-54.09684
2024-03-14 01:39:00+00:00,371.68300000000005,0.7,11.61,47.84626,-54.09684
2024-03-14 01:49:00+00:00,374.1579,0.7,11.61,47.84626,-54.09684
2024-03-14 01:59:00+00:00,374.0996,0.7,11.61,47.84626,-54.09684
2024-03-14 02:09:00+00:00,374.7263,0.7,11.61,47.84626,-54.09684
2024-03-14 02:19:00+00:00,375.8995,0.7,11.61,47.84626,-54.09684
2024-03-14 02:29:00+00:00,376.6695,0.7,11.61,47.84626,-54.09684
2024-03-14 02:39:00+00:00,376.8312,0.7,11.61,47.84626,-54.09684
2024-03-14 02:49:00+00:00,375.2496,0.71,11.61,47.84626,-54.09684
2024-03-14 02:59:00+00:00,372.9846,0.72,11.61,47.84626,-54.09684
2024-03-14 03:09:00+00:00,370.3846,0.72,11.61,47.84626,-54.09684
2024-03-14 03:19:00+00:00,367.343,0.7,11.53,47.84626,-54.09684
2024-03-14 03:29:00+00:00,364.1247,0.7,11.53,47.84626,-54.09684
2024-03-14 03:39:00+00:00,359.2712,0.7,11.53,47.84626,-54.09684
2024-03-14 03:49:00+00:00,355.3896,0.74,11.53,47.84626,-54.09684
2024-03-14 03:59:00+00:00,351.4847,0.79,11.53,47.84626,-54.09684
2024-03-14 04:09:00+00:00,346.1896,0.8,11.53,47.84626,-54.09684
2024-03-14 04:19:00+00:00,342.0197,0.8,11.53,47.84626,-54.09684
2024-03-14 04:29:00+00:00,337.0446,0.8,11.53,47.84626,-54.09684
2024-03-14 04:39:00+00:00,329.408,0.8,11.53,47.84626,-54.09684
2024-03-14 04:49:00+00:00,319.408,0.78,11.53,47.84626,-54.09684
2024-03-14 04:59:00+00:00,308.5047,0.77,11.53,47.84626,-54.09684
2024-03-14 05:09:00+00:00,298.0947,0.73,11.53,47.84626,-54.09684
2024-03-14 05:19:00+00:00,288.1064,0.73,11.53,47.84626,-54.09684
2024-03-14 05:29:00+00:00,280.0347,0.7,11.53,47.84626,-54.09684
2024-03-14 05:39:00+00:00,271.148,0.74,11.53,47.84626,-54.09684
2024-03-14 05:49:00+00:00,261.5547,0.7,11.53,47.84626,-54.09684
2024-03-14 05:59:00+00:00,250.1981,0.7,11.53,47.84626,-54.09684
2024-03-14 06:09:00+00:00,240.433,0.7,11.53,47.84626,-54.09684
2024-03-14 06:19:00+00:00,231.1964,0.7,11.53,47.84626,-54.09684
2024-03-14 06:29:00+00:00,220.6948,0.7,11.53,47.84626,-54.09684
2024-03-14 06:39:00+00:00,209.4415,0.7,11.53,47.84626,-54.09684
2024-03-14 06:49:00+00:00,201.4598,0.74,11.53,47.84626,-54.09684
2024-03-14 06:59:00+00:00,195.1198,0.78,11.53,47.84626,-54.09684
2024-03-14 07:09:00+00:00,187.5181,0.8,11.53,47.84626,-54.09684
2024-03-14 07:19:00+00:00,181.4898,0.73,11.53,47.84626,-54.09684
2024-03-14 07:29:00+00:00,178.1665,0.77,11.53,47.84626,-54.09684
2024-03-14 07:39:00+00:00,173.6414,0.79,11.53,47.84626,-54.09684
2024-03-14 07:49:00+00:00,169.7515,0.8,11.53,47.84626,-54.09684
2024-03-14 07:59:00+00:00,170.7148,0.88,11.53,47.84626,-54.09684
2024-03-14 08:09:00+00:00,171.9482,0.9,11.53,47.84626,-54.09684
2024-03-14 08:19:00+00:00,170.4265,0.89,11.53,47.84626,-54.09684
2024-03-14 08:29:00+00:00,170.2182,0.78,11.53,47.84626,-54.09684
2024-03-14 08:39:00+00:00,173.7798,0.7,11.53,47.84626,-54.09684
2024-03-14 08:49:00+00:00,176.7531,0.7,11.53,47.84626,-54.09684
2024-03-14 08:59:00+00:00,178.1198,0.7,11.53,47.84626,-54.09684
2024-03-14 09:09:00+00:00,181.5881,0.7,11.53,47.84626,-54.09684
2024-03-14 09:19:00+00:00,186.7998,0.7,11.53,47.84626,-54.09684
2024-03-14 09:29:00+00:00,191.3648,0.7,11.53,47.84626,-54.09684
2024-03-14 09:39:00+00:00,194.2465,0.7,11.53,47.84626,-54.09684
2024-03-14 09:49:00+00:00,197.1465,0.7,11.53,47.84626,-54.09684
2024-03-14 09:59:00+00:00,200.9381,0.66,11.53,47.84626,-54.09684
2024-03-14 10:09:00+00:00,203.7665,0.7,11.53,47.84626,-54.09684
2024-03-14 10:19:00+00:00,205.2548,0.7,11.53,47.84626,-54.09684
2024-03-14 10:29:00+00:00,210.1664,0.7,11.53,47.84626,-54.09684
2024-03-14 10:39:00+00:00,215.9714,0.7,11.53,47.84626,-54.09684
2024-03-14 10:49:00+00:00,217.4331,0.7,11.53,47.84626,-54.09684
2024-03-14 10:59:00+00:00,220.1581,0.7,11.53,47.84626,-54.09684
2024-03-14 11:09:00+00:00,227.5781,0.7,11.53,47.84626,-54.09684
2024-03-14 11:19:00+00:00,232.4498,0.7,11.53,47.84626,-54.09684
2024-03-14 11:29:00+00:00,234.7648,0.7,11.53,47.84626,-54.09684
2024-03-14 11:39:00+00:00,240.2731,0.7,11.53,47.84626,-54.09684
2024-03-14 11:49:00+00:00,247.5598,0.7,11.53,47.84626,-54.09684
2024-03-14 11:59:00+00:00,253.3081,0.6,11.53,47.84626,-54.09684
2024-03-14 12:09:00+00:00,258.5714,0.6,11.53,47.84626,-54.09684
2024-03-14 12:19:00+00:00,267.3914,0.6,11.53,47.84626,-54.09684
2024-03-14 12:29:00+00:00,278.093,0.6,11.53,47.84626,-54.09684
2024-03-14 12:39:00+00:00,287.578,0.6,11.53,47.84626,-54.09684
2024-03-14 12:49:00+00:00,294.2314,0.6,11.53,47.84626,-54.09684
2024-03-14 12:59:00+00:00,303.1331,0.6,11.53,47.84626,-54.09684
2024-03-14 13:09:00+00:00,313.9564,0.6,11.53,47.84626,-54.09684
2024-03-14 13:19:00+00:00,324.0447,0.6,11.61,47.84626,-54.09684
2024-03-14 13:29:00+00:00,330.36800000000005,0.6,11.61,47.84626,-54.09684
2024-03-14 13:39:00+00:00,335.8713,0.6,11.61,47.84626,-54.09684
2024-03-14 13:49:00+00:00,342.8780000000001,0.6,11.61,47.84626,-54.09684
2024-03-14 13:59:00+00:00,346.4662,0.6,11.61,47.84626,-54.09684
2024-03-14 14:09:00+00:00,347.8529,0.6,11.61,47.84626,-54.09684
2024-03-14 14:19:00+00:00,352.2613,0.6,11.7,47.84626,-54.09684
2024-03-14 14:29:00+00:00,356.86300000000006,0.6,11.7,47.84626,-54.09684
2024-03-14 14:39:00+00:00,356.8879,0.6,11.7,47.84626,-54.09684
2024-03-14 14:49:00+00:00,355.7047,0.6,11.7,47.84626,-54.09684
2024-03-14 14:59:00+00:00,357.7346,0.6,11.7,47.84626,-54.09684
2024-03-14 15:09:00+00:00,356.713,0.6,11.7,47.84626,-54.09684
2024-03-14 15:19:00+00:00,350.913,0.6,11.77,47.84626,-54.09684
2024-03-14 15:29:00+00:00,348.0013,0.6,11.77,47.84626,-54.09684
2024-03-14 15:39:00+00:00,348.4279,0.65,11.77,47.84626,-54.09684
2024-03-14 15:49:00+00:00,345.8279,0.8,11.77,47.84626,-54.09684
2024-03-14 15:59:00+00:00,339.8929,0.79,11.77,47.84626,-54.09684
2024-03-14 16:09:00+00:00,335.9697,0.89,11.77,47.84626,-54.09684
2024-03-14 16:19:00+00:00,336.2396,1.13,11.86,47.84626,-54.09684
2024-03-14 16:29:00+00:00,332.5730000000001,1.2,11.86,47.84626,-54.09684
2024-03-14 16:39:00+00:00,323.5147,0.87,11.86,47.84626,-54.09684
2024-03-14 16:49:00+00:00,317.4597,0.82,11.86,47.84626,-54.09684
2024-03-14 16:59:00+00:00,311.938,0.96,11.86,47.84626,-54.09684
2024-03-14 17:09:00+00:00,303.2147,1.0,11.86,47.84626,-54.09684
2024-03-14 17:19:00+00:00,291.4914,1.08,11.93,47.84626,-54.09684
2024-03-14 17:29:00+00:00,284.1346,1.1,11.93,47.84626,-54.09684
2024-03-14 17:39:00+00:00,276.798,1.09,11.93,47.84626,-54.09684
2024-03-14 17:49:00+00:00,265.8981,1.29,11.93,47.84626,-54.09684
2024-03-14 17:59:00+00:00,255.1264,1.27,11.93,47.84626,-54.09684
2024-03-14 18:09:00+00:00,246.0698,1.29,11.93,47.84626,-54.09684
2024-03-14 18:19:00+00:00,235.9798,1.39,11.77,47.84626,-54.09684
2024-03-14 18:29:00+00:00,224.2048,1.4,11.77,47.84626,-54.09684
2024-03-14 18:39:00+00:00,213.2648,1.4,11.77,47.84626,-54.09684
2024-03-14 18:49:00+00:00,204.5148,1.4,11.77,47.84626,-54.09684
2024-03-14 18:59:00+00:00,196.6565,1.37,11.77,47.84626,-54.09684
2024-03-14 19:09:00+00:00,187.9348,1.4,11.77,47.84626,-54.09684
2024-03-14 19:19:00+00:00,181.4098,1.4,11.77,47.84626,-54.09684
2024-03-14 19:29:00+00:00,179.4431,1.31,11.77,47.84626,-54.09684
2024-03-14 19:39:00+00:00,176.9748,1.3,11.77,47.84626,-54.09684
2024-03-14 19:49:00+00:00,173.7564,1.3,11.77,47.84626,-54.09684
2024-03-14 19:59:00+00:00,173.0698,1.31,11.77,47.84626,-54.09684
2024-03-14 20:09:00+00:00,174.7631,1.34,11.77,47.84626,-54.09684
2024-03-14 20:19:00+00:00,175.6281,1.38,11.7,47.84626,-54.09684
2024-03-14 20:29:00+00:00,176.0215,1.4,11.7,47.84626,-54.09684
2024-03-14 20:39:00+00:00,179.9381,1.48,11.7,47.84626,-54.09684
2024-03-14 20:49:00+00:00,183.6915,1.48,11.7,47.84626,-54.09684
2024-03-14 20:59:00+00:00,187.4498,1.49,11.7,47.84626,-54.09684
2024-03-14 21:09:00+00:00,191.5698,1.5,11.7,47.84626,-54.09684
2024-03-14 21:19:00+00:00,197.0882,1.5,11.7,47.84626,-54.09684
2024-03-14 21:29:00+00:00,203.5698,1.5,11.7,47.84626,-54.09684
2024-03-14 21:39:00+00:00,208.1614,1.07,11.7,47.84626,-54.09684
2024-03-14 21:49:00+00:00,214.1381,0.9,11.7,47.84626,-54.09684
2024-03-14 21:59:00+00:00,221.2564,0.88,11.7,47.84626,-54.09684
2024-03-14 22:09:00+00:00,227.1931,0.8,11.7,47.84626,-54.09684
2024-03-14 22:19:00+00:00,231.9764,0.82,11.61,47.84626,-54.09684
2024-03-14 22:29:00+00:00,237.1864,0.8,11.61,47.84626,-54.09684
2024-03-14 22:39:00+00:00,242.6131,0.79,11.61,47.84626,-54.09684
2024-03-14 22:49:00+00:00,246.2798,0.7,11.61,47.84626,-54.09684
2024-03-14 22:59:00+00:00,248.1514,0.6,11.61,47.84626,-54.09684
2024-03-14 23:09:00+00:00,250.0264,0.6,11.61,47.84626,-54.09684
2024-03-14 23:19:01+00:00,253.3848,0.6,11.61,47.84626,-54.09684
2024-03-14 23:29:01+00:00,257.4414,0.64,11.61,47.84626,-54.09684
2024-03-14 23:39:01+00:00,260.8914,0.66,11.61,47.84626,-54.09684
2024-03-14 23:49:01+00:00,264.6664,0.67,11.61,47.84626,-54.09684
2024-03-14 23:59:01+00:00,268.0881,0.7,11.61,47.84626,-54.09684
